Total_Precipitation_Accumulation
0.13 0.30 0.64 1.06 1.83 1.96 1.52 0.91 0.71 0.56 0.56 0.60 0.61 0.62 0.69 0.89 1.27 1.91 1.64 1.11 0.68 0.58 0.73 1.03 1.33 1.33 1.53 1.53 1.40 1.40 1.34 1.35 1.37 1.36 1.41 1.49 1.57 1.62 1.67 1.69 1.76 2.01 2.12 1.96 1.84 1.93 2.02 2.04 2.15
0.26 0.49 0.83 1.44 2.04 1.78 1.33 0.78 0.60 0.47 0.47 0.48 0.43 0.51 0.69 0.84 0.73 0.97 1.27 1.05 0.61 0.53 0.52 0.58 1.04 1.39 1.61 1.56 1.43 1.36 1.35 1.36 1.30 1.42 1.42 1.42 1.59 1.74 1.80 1.68 1.71 1.82 1.84 1.79 1.79 1.73 1.96 2.05 2.02
0.39 0.63 0.99 1.43 1.28 1.16 0.98 0.65 0.53 0.40 0.49 0.64 0.56 0.51 0.74 0.98 0.81 0.95 1.03 0.69 0.52 0.48 0.45 0.64 1.01 1.24 1.39 1.45 1.38 1.27 1.34 1.44 1.42 1.37 1.29 1.37 1.48 1.67 1.72 1.69 1.71 1.73 1.79 1.80 1.84 1.72 1.98 2.04 1.95
0.41 0.65 0.88 0.86 0.55 0.47 0.52 0.52 0.51 0.53 0.71 0.83 0.72 0.71 0.85 0.87 0.84 0.87 0.75 0.58 0.51 0.59 0.55 0.76 1.08 1.12 1.22 1.29 1.28 1.26 1.37 1.50 1.46 1.40 1.38 1.48 1.53 1.62 1.56 1.56 1.61 1.57 1.74 1.83 1.91 1.89 2.02 1.98 1.90
0.36 0.65 0.90 0.56 0.30 0.31 0.32 0.36 0.51 0.58 0.83 0.90 0.69 0.90 1.21 1.13 0.87 0.79 0.65 0.62 0.60 0.72 0.82 0.95 1.13 1.12 1.16 1.21 1.28 1.33 1.38 1.43 1.49 1.45 1.36 1.45 1.48 1.53 1.51 1.51 1.54 1.53 1.70 1.77 1.89 2.02 2.09 2.05 2.13
0.42 0.56 0.59 0.38 0.23 0.21 0.25 0.32 0.45 0.56 0.78 0.86 0.75 1.13 1.59 1.56 1.25 1.07 0.95 1.03 0.99 1.06 1.12 1.21 1.30 1.26 1.27 1.32 1.44 1.50 1.44 1.39 1.45 1.45 1.39 1.33 1.40 1.43 1.39 1.40 1.40 1.41 1.59 1.72 1.88 2.04 2.03 2.05 2.15
0.37 0.40 0.36 0.22 0.15 0.17 0.23 0.29 0.46 0.62 0.79 1.01 0.99 1.28 1.71 1.97 1.64 1.37 1.30 1.35 1.42 1.43 1.45 1.38 1.33 1.30 1.38 1.52 1.63 1.56 1.45 1.46 1.53 1.52 1.42 1.36 1.40 1.34 1.24 1.25 1.35 1.36 1.55 1.78 1.96 1.98 1.95 1.96 2.12
0.24 0.21 0.21 0.13 0.08 0.14 0.19 0.27 0.41 0.61 0.87 0.99 1.01 1.19 1.49 1.63 1.53 1.58 1.68 1.76 1.92 1.83 1.71 1.50 1.33 1.32 1.23 1.28 1.50 1.50 1.47 1.56 1.61 1.61 1.56 1.60 1.56 1.38 1.39 1.34 1.41 1.44 1.64 1.73 1.75 1.82 1.88 1.91 2.07
0.16 0.15 0.13 0.10 0.06 0.10 0.18 0.34 0.47 0.52 0.69 1.02 1.24 1.10 1.01 1.18 1.56 1.86 2.30 2.36 2.44 2.24 1.81 1.45 1.37 1.44 1.38 1.26 1.31 1.70 1.79 1.79 1.85 1.98 2.04 2.17 2.14 1.74 1.72 1.47 1.64 1.79 1.87 1.86 1.96 2.06 2.15 2.30 2.26
0.11 0.12 0.10 0.05 0.04 0.07 0.18 0.41 0.56 0.68 1.03 1.39 1.56 1.35 1.13 1.19 1.72 2.12 2.41 2.61 2.27 2.25 2.17 1.85 1.60 1.49 1.52 1.41 1.59 2.19 2.20 2.20 2.42 2.66 2.53 2.66 2.47 2.20 1.59 1.60 2.06 2.15 2.25 2.39 2.68 2.87 2.59 2.51 2.43
0.06 0.06 0.05 0.05 0.04 0.08 0.21 0.25 0.33 0.61 1.25 1.66 1.85 1.50 1.26 1.42 1.84 2.38 2.60 2.53 2.23 2.19 2.08 2.12 1.95 1.78 1.77 1.93 1.89 2.14 2.47 2.58 2.68 2.66 2.64 2.76 2.29 1.92 1.74 2.02 2.46 2.48 2.56 2.69 2.95 3.11 2.55 2.67 3.28
0.04 0.04 0.03 0.04 0.04 0.06 0.13 0.21 0.36 0.68 1.18 1.44 1.34 1.19 1.24 1.50 1.79 2.43 2.83 2.70 2.53 2.46 2.31 2.55 2.47 2.40 2.43 2.28 2.26 2.12 2.17 2.21 2.27 2.38 2.29 2.41 2.45 2.33 2.34 2.46 2.56 2.70 2.89 3.20 3.03 3.17 3.15 3.33 3.34
0.03 0.04 0.04 0.04 0.05 0.07 0.11 0.22 0.35 0.59 0.87 0.94 0.86 1.03 1.49 1.61 1.95 2.60 3.16 3.11 3.03 2.90 2.95 3.07 3.11 3.24 3.06 2.82 2.67 2.22 2.26 2.15 2.06 2.07 2.04 2.26 2.57 2.64 2.79 2.57 2.69 2.49 2.61 2.95 3.27 3.32 3.52 3.78 3.73
0.03 0.04 0.05 0.08 0.10 0.10 0.14 0.25 0.41 0.79 0.80 0.74 0.88 1.20 1.59 2.02 2.21 2.67 3.37 3.58 3.50 3.49 3.71 3.67 3.67 3.71 3.54 3.15 2.92 2.64 2.30 2.32 2.10 2.07 2.10 2.59 2.85 2.85 2.94 2.79 2.78 2.51 2.53 2.83 3.19 3.29 3.63 3.72 3.79
0.06 0.08 0.14 0.16 0.15 0.15 0.23 0.60 0.74 0.86 0.82 0.82 1.05 1.32 1.81 2.42 2.68 2.95 3.43 3.77 3.91 4.16 4.36 4.54 4.41 4.10 4.17 3.82 3.08 2.57 2.29 2.14 2.26 2.39 2.45 2.74 2.87 3.08 3.23 3.14 2.77 2.56 2.67 2.89 2.92 3.08 3.59 3.48 3.46
0.09 0.13 0.32 0.28 0.17 0.20 0.34 0.88 0.90 0.90 0.93 1.02 1.24 1.59 1.95 2.44 2.56 2.81 3.26 3.81 4.32 4.71 5.13 5.33 4.91 4.80 4.83 4.50 3.90 3.32 2.97 2.80 2.83 2.85 2.68 2.50 2.66 2.77 3.02 2.78 2.40 2.49 2.71 2.91 2.94 2.94 3.33 3.50 3.55
0.14 0.18 0.30 0.29 0.19 0.20 0.32 0.75 0.75 0.64 0.98 1.38 1.63 1.78 1.94 2.11 2.28 2.46 2.83 3.56 4.38 4.98 5.71 6.10 6.31 5.80 5.40 4.84 4.41 3.88 3.57 3.39 3.13 2.86 2.61 2.31 2.08 1.98 2.28 2.24 2.17 2.19 2.47 2.54 2.26 2.51 2.83 3.09 3.24
0.13 0.19 0.26 0.32 0.24 0.24 0.38 0.66 0.76 0.67 0.96 1.32 1.38 1.65 1.74 1.77 1.99 2.37 2.89 3.44 4.32 5.08 5.79 6.21 6.45 5.93 5.21 4.92 4.89 4.54 3.97 3.52 3.14 2.81 2.61 2.22 2.05 1.83 2.06 2.06 1.89 1.84 2.05 2.15 2.28 2.61 2.70 2.62 2.70
0.08 0.16 0.24 0.25 0.23 0.33 0.50 0.76 0.90 0.88 0.92 1.06 1.17 1.36 1.40 1.44 1.72 2.19 2.84 3.52 4.33 5.44 6.10 6.24 5.99 5.30 4.80 4.39 4.14 3.87 3.62 3.35 2.88 2.50 2.27 2.16 2.04 1.99 2.23 2.02 2.03 1.87 1.91 1.98 2.03 2.27 2.39 2.21 2.38
0.07 0.14 0.23 0.22 0.18 0.22 0.47 0.85 0.98 0.99 1.05 1.02 1.09 1.17 1.10 1.26 1.60 2.20 2.97 3.78 4.46 5.00 5.36 5.45 5.08 4.33 3.84 3.60 3.54 3.28 3.09 2.78 2.57 2.35 2.31 2.00 1.92 1.95 1.87 2.03 1.87 1.78 1.98 1.96 2.03 2.25 2.25 2.04 2.20
0.09 0.11 0.18 0.22 0.19 0.23 0.46 1.01 1.24 1.13 1.10 1.07 0.97 0.95 1.05 1.28 1.81 2.55 3.36 4.13 4.45 4.48 4.27 3.97 3.79 3.40 3.29 3.24 3.06 2.84 2.81 2.55 2.39 2.18 2.09 1.80 1.63 1.64 1.70 1.71 1.66 1.76 1.65 1.85 2.00 2.11 2.32 2.32 2.09
0.10 0.09 0.08 0.10 0.17 0.40 0.56 1.11 1.30 1.28 1.21 1.06 1.04 1.05 1.15 1.43 1.95 2.64 3.18 3.42 3.56 3.50 3.21 3.02 2.95 2.88 2.82 2.74 2.64 2.35 2.22 2.20 2.05 1.97 1.99 1.86 1.66 1.64 1.64 1.60 1.71 1.73 1.58 1.86 1.62 1.77 2.11 2.29 2.13
0.07 0.06 0.06 0.11 0.23 0.44 0.60 0.95 1.32 1.30 1.37 0.95 0.81 0.90 1.00 1.24 1.52 1.72 1.92 2.09 2.22 2.25 2.41 2.48 2.61 2.73 2.64 2.58 2.57 2.49 2.20 2.16 2.13 2.12 2.22 2.08 1.86 1.67 1.48 1.56 1.75 1.79 1.65 1.69 1.69 1.90 1.91 1.99 2.03
0.05 0.07 0.14 0.25 0.43 0.80 0.82 1.00 1.34 1.33 1.23 0.83 0.62 0.63 0.80 0.91 0.97 1.06 1.15 1.27 1.50 1.56 1.78 1.99 2.11 2.26 2.43 2.47 2.31 2.23 2.18 2.22 2.26 2.20 2.02 1.83 1.70 1.59 1.48 1.58 1.86 1.85 1.81 1.76 1.73 1.76 1.80 1.99 2.10
0.07 0.13 0.38 0.73 1.08 1.14 0.72 0.84 1.24 1.18 0.86 0.59 0.49 0.46 0.49 0.67 0.81 0.94 1.05 1.14 1.35 1.31 1.39 1.62 1.68 1.70 1.86 1.91 1.88 1.94 2.09 2.14 2.02 1.90 1.82 1.66 1.42 1.40 1.47 1.55 1.77 1.78 1.80 1.72 1.89 1.92 1.84 1.97 2.03
0.08 0.12 0.25 0.45 0.57 0.76 0.82 1.30 1.48 0.88 0.60 0.46 0.42 0.41 0.42 0.58 0.72 0.81 0.80 0.88 1.01 1.01 1.15 1.27 1.34 1.41 1.48 1.60 1.72 1.69 1.84 1.85 1.76 1.83 1.70 1.56 1.35 1.25 1.29 1.40 1.47 1.56 1.62 1.60 1.99 1.87 1.89 1.98 1.90
0.09 0.08 0.12 0.17 0.25 0.57 0.99 1.36 1.31 0.80 0.61 0.45 0.43 0.45 0.47 0.45 0.58 0.64 0.58 0.58 0.73 0.86 0.99 1.07 1.14 1.26 1.30 1.44 1.52 1.50 1.60 1.69 1.74 1.75 1.63 1.46 1.47 1.31 1.35 1.42 1.62 1.75 1.80 1.84 2.07 1.99 1.95 2.09 1.92
0.09 0.12 0.14 0.15 0.25 0.49 0.90 1.40 1.67 1.22 0.69 0.52 0.50 0.50 0.55 0.47 0.50 0.54 0.53 0.49 0.58 0.75 1.01 1.07 1.08 1.21 1.23 1.32 1.34 1.22 1.39 1.53 1.68 1.63 1.55 1.50 1.52 1.47 1.59 1.66 1.80 1.92 1.87 1.85 2.02 1.98 2.06 2.14 2.04
0.11 0.12 0.14 0.16 0.18 0.31 0.74 1.06 0.94 0.92 0.67 0.67 0.65 0.57 0.56 0.52 0.55 0.53 0.52 0.51 0.50 0.63 0.85 0.91 1.05 1.16 1.21 1.28 1.39 1.44 1.44 1.39 1.51 1.54 1.52 1.56 1.60 1.57 1.64 1.75 1.87 1.89 1.95 2.05 2.12 1.95 2.02 2.13 2.31
0.14 0.15 0.15 0.17 0.18 0.21 0.36 0.59 0.59 0.74 0.70 0.71 0.77 0.70 0.64 0.48 0.45 0.48 0.52 0.57 0.54 0.57 0.69 0.83 1.00 1.16 1.22 1.29 1.42 1.51 1.65 1.61 1.55 1.53 1.57 1.61 1.73 1.80 1.78 1.85 1.90 1.78 1.83 2.04 2.10 2.06 2.05 2.08 2.13